Weather History for Kelso-Longview, WA

Change the Weather History Date:

Thursday, August 1, 2013

  Actual Average Record
Temperature  
Mean Temperature 62 °F -  
Max Temperature 66 °F 75 °F 91 °F (2014)
Min Temperature 57 °F 54 °F 46 °F (2002)
Degree Days  
Heating Degree Days 4    
Growing Degree Days 12 (Base 50)    
Moisture  
Dew Point 53 °F    
Average Humidity 75    
Maximum Humidity 88    
Minimum Humidity 60    
Precipitation  
Precipitation 0.00 in - - ()
Sea Level Pressure  
Sea Level Pressure 30.12 in    
Wind  
Wind Speed 1 mph (SE)    
Max Wind Speed 8 mph    
Max Gust Speed -    
Visibility 10 miles    
Events      
Averages and records for this station are not official NWS values.
T = Trace of Precipitation, MM = Missing Value Source: NWS Daily Summary

Daily Weather History Graph

Daily Weather History Graph

Search for Another Location

Airport:

Trip Planner

Search our weather history database for the weather conditions in past years. The results will help you decide how hot, cold, wet, or windy it might be!

Date:

Astronomy

Aug. 01, 2013 Rise Set
Actual Time 5:54 AM PDT 8:40 PM PDT
Civil Twilight 5:19 AM PDT 9:15 PM PDT
Nautical Twilight 4:35 AM PDT 9:59 PM PDT
Astronomical Twilight 3:43 AM PDT 10:50 PM PDT
Moon 1:32 AM PDT (8/1) 4:56 PM PDT (8/1)
Length of Visible Light 15h 55m
Length of Day
14h 46m
Waning Crescent, 22% of the Moon is Illuminated
Aug 1
Waning Crescent
Aug 6
New
Aug 14
First Quarter
Aug 20
Full
Aug 28
Last Quarter

Hourly Weather History & Observations

Time (PDT) Temp. Dew Point Humidity Pressure Visibility Wind Dir Wind Speed Gust Speed Precip Events Conditions
12:15 AM 59.0 °F 51.8 °F 77% 30.12 in 10.0 mi North - - N/A   Overcast
12:35 AM 57.2 °F 51.8 °F 82% 30.11 in 10.0 mi North - - N/A   Overcast
12:55 AM 57.2 °F 51.8 °F 82% 30.12 in 10.0 mi North - - N/A   Overcast
1:15 AM 57.2 °F 51.8 °F 82% 30.12 in 10.0 mi North - - N/A   Overcast
1:35 AM 57.2 °F 51.8 °F 82% 30.12 in 10.0 mi North - - N/A   Overcast
1:55 AM 57.2 °F 51.8 °F 82% 30.12 in 10.0 mi North - - N/A   Overcast
2:15 AM 57.2 °F 51.8 °F 82% 30.12 in 10.0 mi North - - N/A   Overcast
2:35 AM 57.2 °F 51.8 °F 82% 30.12 in 10.0 mi North - - N/A   Overcast
2:55 AM 57.2 °F 51.8 °F 82% 30.11 in 10.0 mi North - - N/A   Overcast
3:15 AM 57.2 °F 51.8 °F 82% 30.11 in 10.0 mi North - - N/A   Overcast
3:35 AM 57.2 °F 51.8 °F 82% 30.11 in 10.0 mi North - - N/A   Overcast
3:55 AM 57.2 °F 51.8 °F 82% 30.11 in 10.0 mi North - - N/A   Overcast
4:15 AM 57.2 °F 51.8 °F 82% 30.10 in 10.0 mi North - - N/A   Overcast
4:35 AM 57.2 °F 51.8 °F 82% 30.10 in 10.0 mi North - - N/A   Overcast
4:55 AM 57.2 °F 51.8 °F 82% 30.11 in 10.0 mi North - - N/A   Overcast
5:15 AM 57.2 °F 51.8 °F 82% 30.11 in 10.0 mi North - - N/A   Overcast
5:35 AM 57.2 °F 51.8 °F 82% 30.10 in 10.0 mi North - - N/A   Overcast
5:55 AM 57.2 °F 51.8 °F 82% 30.11 in 10.0 mi Calm Calm - N/A   Overcast
6:15 AM 57.2 °F 51.8 °F 82% 30.11 in 10.0 mi Calm Calm - N/A   Overcast
6:35 AM 57.2 °F 51.8 °F 82% 30.12 in 10.0 mi Calm Calm - N/A   Overcast
6:55 AM 59.0 °F 51.8 °F 77% 30.12 in 10.0 mi Calm Calm - N/A   Overcast
7:15 AM 57.2 °F 51.8 °F 82% 30.12 in 3.0 mi Calm Calm - N/A   Overcast
7:35 AM 57.2 °F 51.8 °F 82% 30.12 in 5.0 mi Calm Calm - N/A   Overcast
7:55 AM 57.2 °F 51.8 °F 82% 30.13 in 9.0 mi Calm Calm - N/A   Overcast
8:15 AM 57.2 °F 51.8 °F 82% 30.13 in 10.0 mi Calm Calm - N/A   Overcast
8:35 AM 59.0 °F 51.8 °F 77% 30.12 in 10.0 mi Calm Calm - N/A   Overcast
8:55 AM 59.0 °F 51.8 °F 77% 30.12 in 10.0 mi East 3.5 mph - N/A   Overcast
9:15 AM 59.0 °F 51.8 °F 77% 30.12 in 10.0 mi Calm Calm - N/A   Overcast
9:35 AM 60.8 °F 51.8 °F 72% 30.12 in 10.0 mi SSE 3.5 mph - N/A   Overcast
9:55 AM 60.8 °F 51.8 °F 72% 30.12 in 10.0 mi SE 3.5 mph - N/A   Overcast
10:15 AM 60.8 °F 51.8 °F 72% 30.12 in 10.0 mi Calm Calm - N/A   Overcast
10:35 AM 60.8 °F 51.8 °F 72% 30.12 in 10.0 mi Calm Calm - N/A   Overcast
10:55 AM 62.6 °F 51.8 °F 68% 30.12 in 10.0 mi North - - N/A   Overcast
11:15 AM 62.6 °F 51.8 °F 68% 30.12 in 10.0 mi Calm Calm - N/A   Overcast
11:35 AM 62.6 °F 51.8 °F 68% 30.12 in 10.0 mi North - - N/A   Overcast
11:55 AM 62.6 °F 51.8 °F 68% 30.12 in 10.0 mi South 3.5 mph - N/A   Overcast
12:15 PM 64.4 °F 51.8 °F 64% 30.12 in 10.0 mi SE 5.8 mph - N/A   Overcast
12:35 PM 64.4 °F 51.8 °F 64% 30.12 in 10.0 mi North - - N/A   Overcast
12:55 PM 64.4 °F 51.8 °F 64% 30.12 in 10.0 mi North - - N/A   Overcast
1:15 PM 64.4 °F 51.8 °F 64% 30.13 in 10.0 mi North - - N/A   Overcast
1:35 PM 64.4 °F 51.8 °F 64% 30.13 in 10.0 mi North - - N/A   Overcast
1:55 PM 64.4 °F 51.8 °F 64% 30.13 in 10.0 mi North - - N/A   Overcast
2:15 PM 64.4 °F 51.8 °F 64% 30.13 in 10.0 mi North - - N/A   Overcast
2:35 PM 64.4 °F 53.6 °F 68% 30.13 in 10.0 mi North - - N/A   Overcast
2:55 PM 64.4 °F 53.6 °F 68% 30.12 in 10.0 mi North - - N/A   Overcast
3:15 PM 64.4 °F 53.6 °F 68% 30.12 in 10.0 mi Calm Calm - N/A   Overcast
3:35 PM 64.4 °F 51.8 °F 64% 30.12 in 10.0 mi NW 5.8 mph - N/A   Overcast
3:55 PM 64.4 °F 53.6 °F 68% 30.12 in 10.0 mi NNW 3.5 mph - N/A   Overcast
4:15 PM 64.4 °F 51.8 °F 64% 30.12 in 10.0 mi Calm Calm - N/A   Overcast
4:35 PM 66.2 °F 51.8 °F 60% 30.12 in 10.0 mi Calm Calm - N/A   Overcast
4:55 PM 64.4 °F 53.6 °F 68% 30.12 in 10.0 mi Calm Calm - N/A   Overcast
5:15 PM 64.4 °F 53.6 °F 68% 30.11 in 10.0 mi Calm Calm - N/A   Overcast
5:35 PM 64.4 °F 53.6 °F 68% 30.11 in 10.0 mi Calm Calm - N/A   Overcast
5:55 PM 64.4 °F 55.4 °F 73% 30.11 in 10.0 mi SSE 8.1 mph - N/A   Overcast
6:15 PM 64.4 °F 55.4 °F 73% 30.12 in 10.0 mi SSE 6.9 mph - N/A   Overcast
6:35 PM 64.4 °F 55.4 °F 73% 30.11 in 10.0 mi SSE 4.6 mph - N/A   Overcast
6:55 PM 62.6 °F 55.4 °F 77% 30.12 in 10.0 mi South 5.8 mph - N/A   Overcast
7:15 PM 62.6 °F 55.4 °F 77% 30.12 in 10.0 mi SSE 4.6 mph - N/A   Overcast
7:35 PM 62.6 °F 55.4 °F 77% 30.12 in 10.0 mi SSE 4.6 mph - N/A   Overcast
7:55 PM 62.6 °F 55.4 °F 77% 30.13 in 10.0 mi Calm Calm - N/A   Overcast
8:15 PM 62.6 °F 57.2 °F 82% 30.13 in 10.0 mi Calm Calm - N/A   Overcast
8:35 PM 62.6 °F 55.4 °F 77% 30.13 in 10.0 mi Calm Calm - N/A   Overcast
8:55 PM 60.8 °F 57.2 °F 88% 30.13 in 10.0 mi Calm Calm - N/A   Overcast
9:15 PM 60.8 °F 55.4 °F 82% 30.13 in 10.0 mi Calm Calm - N/A   Overcast
9:35 PM 60.8 °F 53.6 °F 77% 30.14 in 10.0 mi Calm Calm - N/A   Overcast
9:55 PM 60.8 °F 53.6 °F 77% 30.14 in 10.0 mi Calm Calm - N/A   Overcast
10:15 PM 60.8 °F 53.6 °F 77% 30.14 in 10.0 mi Calm Calm - N/A   Overcast
10:35 PM 60.8 °F 53.6 °F 77% 30.14 in 10.0 mi Calm Calm - N/A   Overcast
10:55 PM 60.8 °F 53.6 °F 77% 30.14 in 10.0 mi North 5.8 mph - N/A   Overcast
11:15 PM 60.8 °F 53.6 °F 77% 30.14 in 10.0 mi NNW 3.5 mph - N/A   Overcast
11:35 PM 60.8 °F 53.6 °F 77% 30.14 in 10.0 mi NNW 3.5 mph - N/A   Overcast
11:55 PM 60.8 °F 53.6 °F 77% 30.14 in 10.0 mi Calm Calm - N/A   Overcast